RH
84 80 79 76 74 74 69 62 63 62 55 55 55 49 45 45 47 49 49 48 49 50 52 51 50 51 56 61 58 63 68 60 56 56 54 50 44 35 30 29 30 28 28 26
70 76 77 76 75 73 68 67 63 63 59 57 55 56 53 57 54 53 53 51 50 50 51 52 53 58 61 61 60 67 63 57 56 54 52 48 38 31 30 30 28 27 24 22
77 65 67 68 60 62 66 62 60 64 57 61 60 60 56 52 52 52 53 54 51 54 55 56 61 63 61 59 68 64 57 57 55 52 49 40 32 32 31 28 27 24 21 18
84 70 79 57 54 51 50 48 51 54 54 57 56 55 53 53 52 55 53 49 48 52 55 61 64 61 62 69 63 57 56 53 53 50 41 33 33 31 28 27 24 21 19 19
84 76 70 62 58 56 56 51 47 47 51 57 55 54 58 55 58 58 51 49 52 56 62 62 62 64 66 60 56 54 52 52 49 41 36 34 29 27 28 25 22 20 20 19
87 84 79 66 58 53 51 59 52 50 51 52 53 58 59 59 59 58 58 57 58 59 62 66 68 65 55 52 51 51 50 48 42 38 34 28 28 29 26 23 22 21 20 20
90 87 77 67 61 56 60 60 52 49 46 46 50 52 56 58 59 56 57 62 66 64 63 62 55 51 47 48 49 48 46 44 41 33 27 29 30 29 26 23 22 21 21 21
93 91 88 68 64 64 65 62 58 54 54 55 55 55 56 59 60 60 60 58 59 60 55 49 44 44 47 47 46 45 47 41 31 27 30 31 31 29 25 24 23 23 23 23
84 80 72 69 68 64 63 62 62 60 56 56 57 58 60 60 57 56 60 61 56 48 39 40 44 46 47 45 45 48 38 28 26 30 32 33 32 28 25 26 26 26 26 26
75 73 72 73 69 67 65 60 60 58 58 56 59 63 63 62 61 56 50 39 35 37 40 43 45 46 44 46 46 36 27 27 30 32 33 34 32 28 28 28 28 28 29 30
75 74 74 72 71 67 62 64 63 61 59 57 56 55 51 48 46 43 40 39 41 41 41 43 44 44 47 45 33 26 28 30 32 34 35 35 32 30 30 30 32 32 33 35
77 74 72 67 63 62 61 57 53 50 49 49 46 47 47 46 42 41 43 44 41 41 41 42 46 46 43 32 27 28 30 32 35 37 38 37 32 30 31 31 31 33 34 39
68 58 58 57 55 59 60 61 59 53 52 51 50 48 46 42 40 41 40 40 40 40 43 47 46 44 30 28 29 30 31 34 37 40 40 37 35 32 29 28 31 32 31 34
58 59 62 61 59 57 54 51 51 50 52 50 47 48 41 37 39 39 38 38 40 45 47 46 43 31 29 30 31 32 34 37 40 44 42 38 36 34 34 33 31 26 27 32
54 50 47 47 47 48 49 51 52 54 55 53 50 46 40 35 34 36 40 43 43 46 46 43 33 30 30 31 32 34 37 41 46 46 43 40 35 36 35 33 30 29 30 30
52 50 47 47 48 52 57 61 60 61 58 53 46 38 31 34 41 44 39 41 47 46 44 34 31 31 31 33 35 37 43 47 48 45 42 36 37 35 34 31 30 32 33 31
50 54 55 59 59 60 59 59 55 53 52 43 37 39 44 45 39 36 41 48 47 45 37 33 32 33 34 34 37 44 48 50 47 42 37 37 36 36 32 30 32 33 32 37
59 61 60 58 57 55 55 56 53 50 44 45 46 42 39 37 36 42 48 48 47 42 36 36 35 33 34 38 44 50 51 48 42 37 38 37 37 33 29 32 32 32 35 41
56 56 58 58 58 59 58 57 51 50 48 42 39 39 38 37 44 49 49 48 45 41 40 36 35 37 41 47 51 52 47 40 37 38 38 36 31 29 31 33 33 36 41 46
69 68 66 68 69 68 62 55 49 42 39 39 39 38 39 47 52 51 50 48 45 44 39 39 40 43 50 52 50 46 38 37 36 37 35 31 29 31 33 32 35 39 46 49
73 73 71 67 59 54 50 46 41 41 40 40 40 43 50 52 51 51 50 48 45 42 41 43 48 54 52 47 42 37 37 36 36 35 31 29 31 33 32 33 38 46 50 50
67 63 60 55 51 49 44 43 44 44 44 45 49 53 53 52 51 51 48 45 44 44 48 54 53 49 45 39 38 37 36 36 35 31 29 31 33 33 34 38 45 50 50 50
62 60 57 52 50 46 47 48 48 50 55 55 55 55 53 53 51 47 47 48 49 54 54 49 46 41 38 37 36 36 35 33 30 29 31 34 34 35 41 46 51 51 49 48
62 61 60 57 53 51 52 57 58 58 58 57 56 55 54 51 49 50 51 54 54 49 46 42 38 37 36 36 36 34 32 30 30 32 34 34 37 42 47 51 50 49 47 45
66 62 60 59 59 61 60 62 60 59 58 58 57 54 52 52 54 56 54 49 47 43 40 38 37 36 36 35 32 30 30 31 33 34 34 38 43 47 50 49 48 47 46 45
62 59 59 60 62 62 62 62 61 60 60 58 56 55 57 58 55 50 49 46 42 40 39 37 37 36 34 31 30 31 32 33 32 34 39 44 48 51 49 48 47 45 44 48
60 61 62 64 64 64 63 62 62 60 58 58 58 59 56 51 50 49 45 42 40 39 37 37 36 33 31 31 31 31 30 32 37 41 45 50 51 49 48 47 46 45 45 54